Regional Weather Roundup
Issued by NWS

Home | Current Version | Previous Version | Graphics & Text | Print | Product List | Glossary On
Versions: 1 2 3 4 5 6 7 8 9 10 11 12 13 14 15 16 17 18 19 20 21 22 23 24 25 26 27 28 29 30 31 32 33 34 35 36 37 38 39 40 41 42 43 44 45 46 47 48 49 50
758
ASUS43 KDTX 290210
RWRMI
MICHIGAN HOURLY REGIONAL WEATHER ROUNDUP
NATIONAL WEATHER SERVICE DETROIT/PONTIAC MI
1000 PM EDT SUN AUG 28 2016

NOTE: "FAIR" INDICATES FEW OR NO CLOUDS BELOW 12,000 FEET WITH NO
SIGNIFICANT WEATHER AND/OR OBSTRUCTION TO VISIBILITY.

MIZ047>049-052>055-059>063-066>070-074>076-081>083-290300-
SOUTHEAST LOWER MICHIGAN

CITY           SKY/WX    TMP DP  RH WIND       PRES   REMARKS
ADRIAN         PTCLDY    73  73 100 CALM      30.21R
ALMA           CLEAR     68  68 100 W3        30.21R
ANN ARBOR      PTCLDY    75  69  81 N6        30.20R
CARO           CLEAR     64  64  99 CALM      30.21R
DETROIT CITY   CLOUDY    79  67  66 N8        30.19R
DETROIT        MOCLDY    78  74  87 CALM      30.20R FOG
FLINT          CLEAR     75  66  73 N6        30.21R
GROSSE ILE     PTCLDY    74  72  96 CALM      30.18R
HILLSDALE      PTCLDY    71  69  93 N3        30.22R
HOWELL         CLOUDY    72  67  85 CALM      30.22R

CITY           SKY/WX    TMP DP  RH WIND       PRES   REMARKS
JACKSON        PTCLDY    74  71  91 NE3       30.22R
LAMBERTVILLE   PTCLDY    72  70  94 CALM      30.20S FOG
LANSING        CLEAR     72  64  76 N5        30.21R
LAPEER         FAIR      68  66  93 CALM      30.22R
MASON          CLOUDY    70  66  88 CALM      30.22R
MONROE         PTCLDY    69  69 100 CALM      30.18R
MT. CLEMENS    MOCLDY    74  71  91 NE9       30.18R
PONTIAC        CLOUDY    73  67  81 N5        30.21R
PORT HURON     PTCLDY    70  68  94 N3        30.22R
TRI CITIES     CLEAR     71  67  87 SE5       30.21R
MIDLAND        FAIR      67  66  99 CALM      30.20R
TROY           PTCLDY    78  66  66 N5        30.22R
SAGINAW HB     CLEAR     68  63  83 S3        30.21R
$$
MIZ043>046-050>051-056>058-064>065-071>073-077>080-290300-
SOUTHWEST LOWER MICHIGAN

CITY           SKY/WX    TMP DP  RH WIND       PRES   REMARKS
BATTLE CREEK   CLEAR     73  71  93 CALM      30.22R
BENTON HARBOR  PTCLDY    70  66  87 CALM      30.20R
BIG RAPIDS     CLEAR     70  66  87 NW5       30.23R
COLDWATER      MOCLDY    72  72 100 CALM      30.22R
FREMONT        FAIR      67  65  93 N5        30.21R
HOLLAND        MOCLDY    70  64  81 NW3       30.22R
GRAND RAPIDS   PTCLDY    74  66  76 NW5       30.21R
IONIA          FAIR      71  65  83 NE3       30.20R
KALAMAZOO      CLEAR     75  69  81 N3        30.21R
LUDINGTON      PTCLDY    61  61 100 CALM      30.22R FOG
MARSHALL       PTCLDY    72  72 100 CALM      30.21R
MOUNT PLEASANT CLEAR     68  67  97 CALM      30.21R
MUSKEGON       PTCLDY    69  64  84 N6        30.21R
SOUTH HAVEN    PTCLDY    71  68  92 CALM      30.21R
$$
MIZ016>042-290300-
NORTHERN LOWER MICHIGAN

CITY           SKY/WX    TMP DP  RH WIND       PRES   REMARKS
ALPENA         CLEAR     66  61  84 CALM      30.23R
BEAVER ISLAND  FOG       61  61  99 CALM      30.25R VSB 1/4
BELLAIRE       CLEAR     61  60  94 CALM      30.24R
CADILLAC       CLEAR     66  62  88 CALM      30.24R
CHARLEVOIX     CLEAR     63  62  96 CALM      30.27R
FRANKFORT      CLEAR     64  61  91 CALM      30.22S
GAYLORD        CLEAR     66  58  75 CALM      30.25R
GRAYLING       CLEAR     62  60  94 NW3       30.25S
HARBOR SPRINGS CLEAR     64  62  94 CALM      30.24R
HOUGHTON LAKE  CLEAR     67  62  84 N3        30.24R
MANISTEE       CLEAR     63  61  93 CALM      30.22R
OSCODA         CLEAR     64  63  96 W6        30.21R
PELLSTON       CLEAR     62  60  93 CALM      30.24R FOG
ROGERS CITY    CLEAR     68  64  85 NW3       30.25R
TRAVERSE CITY  CLEAR     69  63  81 CALM      30.22R
$$
MIZ007>008-015-290300-
EASTERN UPPER MICHIGAN

CITY           SKY/WX    TMP DP  RH WIND       PRES   REMARKS
KINROSS        CLEAR     60  58  92 NW5       30.24R
MACKINAC ISLAN MOCLDY    64  64 100 NE5       30.24R
NEWBERRY       CLEAR     59  58  96 CALM      30.24R
S. S. MARIE    CLEAR     62  58  86 NW5       30.23R
$$
MIZ004>006-011>014-085-290300-
CENTRAL UPPER MICHIGAN

CITY           SKY/WX    TMP DP  RH WIND       PRES   REMARKS
MANISTIQUE     CLEAR     65  63  91 CALM      30.23R
ESCANABA       CLEAR     68  64  87 CALM      30.22R
MENOMINEE      CLEAR    N/A N/A N/A S6        30.23R
SAWYER-GWINN   CLEAR     63  55  77 CALM      30.25R
$$
MIZ001>003-009>011-084-290300-
WESTERN UPPER MICHIGAN

CITY           SKY/WX    TMP DP  RH WIND       PRES   REMARKS
IRON MOUNTAIN  CLEAR     67  60  78 CALM      30.21R
HOUGHTON       MOCLDY    63  61  93 E9        30.22R
IRONWOOD       CLEAR     65  62  90 SE3       30.20R
$$

ABBREVIATIONS USED IN REMARKS
   TC - TEMPERATURE IN CELSIUS
  WCI - WIND CHILL INDEX
   HX - HEAT INDEX
  VSB - VISIBILITY





USA.gov is the U.S. government's official web portal to all federal, state and local government web resources and services.